Location: Unspecified
(0.0000°N, 0.0000°E)
Time: 18:16:19
(UTC+00:00)

DOVE 4 - Pass Details

Date: 16 December 2017
Orbit: 588 x 804 km, 97.7° (Epoch: 20 April)

Event Time Altitude Azimuth Distance (km) Brightness Sun altitude
Rises 03:48:30 0° 40° (NE) 2,830 ? -28.9°
Reaches altitude 10° 03:51:16 10° 59° (ENE) 1,916 ? -28.3°
Maximum altitude 03:54:01 17° 102° (ESE) 1,489 ? -27.7°
Drops below altitude 10° 03:56:46 10° 144° (SE) 1,914 ? -27.1°
Sets 03:59:32 0° 163° (SSE) 2,825 ? -26.4°
